CZ-6A DEB, 56675

Orbit data source: Space-Track

CZ-6A DEB, 56675 is space debris in SSO originally from a launch on Fri, 11 Nov 2022 UTC launched from the Taiyaun Space Center, China (TSC). Debris objects in space refer to the collection of defunct objects orbiting the Earth. Examples of debris include non-operational satellites, rocket bodies, and fragments generated from explosions, collisions, or faulty payload assembly.

Loading next visibility...
Identifier
56675, 2022-151AHB
Orbit
SSO
Country
Flag of CNCN / PRC
Related business
Manufacturer
SAST
Mission
Spacecraft
Bus & Motor
Unknown
Mass
Unknown
Launch date (UTC)
2022-11-11 (4 years ago)
Launch vehicle
Unknown
Launch site
Taiyaun Space Center, China (TSC)
Object type
Payload
Rocket body
Debris
Shape & HBR
Unknown shape, 0.1 m
Radar Cross Section
Small (<0.1 m²)

Expand to show TLE details & history
Last TLE update: 4 days ago

TLE from 4 days ago
0 CZ-6A DEB
1 56675U 22151AHB 26169.72219141  .00000670  00000-0  39114-3 0  9995
2 56675  98.8763 174.2661 0075297 292.0589  67.2597 14.10477241167106
Epoch: 2026-06-18T17:19Z
TLE epoch observation values (Epoch: 2026-06-18T17:19:57.337Z)
Latitude
-0.00007°
Longitude
7.31576°
Altitude
839.921 km
Speed
7.443 km/s
True Right ascension
11h 37m 03s
True Declination
0° 00' 00"
Sunlit
Object was in daylight at epoch
Visualization orbit readout
Latitude
Unknown
Longitude
Unknown
Altitude
Unknown
Speed
Unknown
Apparent Right ascension
Unknown
Apparent Declination
Unknown
Sunlit
N/A
Visualization observer readout
Local Sidereal Time
21:53:58
Azimuth
Unknown
Elevation
Unknown
Doppler factor
Unknown
Orbital elements
Apogee altitude
909.381 km
Perigee altitude
800.455 km
Semi-major axis
7,233.055 km
Eccentricity
0.00753
Inclination
98.8763°
RAAN
174.2661°
Arg. of periapsis
292.0589°
True anomaly
68.05835°
Mean anomaly
67.2597°
Eccentric anomaly
67.65874°
Mean motion
3.52826 °/min
Orbital period
102.03 mins
BSTAR
0.00039114
Loading maneuver chart data...
Computing Atmospheric mass density...
Loading historical data...
Loading historical data...
Loading historical data...
Loading historical data...
Loading historical data...
Loading historical data...
Loading historical data...

Documentation

Showing up to 5 results
|